Peru, IN

8:44 AM EDT on June 25, 2017 (GMT -0400)
Grissom Air Reserve Base

Weather History for KGUS - January, 2013

Change the Weather History Date:

Monday, January 7, 2013

  Actual Average Record
Temperature  
Mean Temperature 23 °F -  
Max Temperature 33 °F 30 °F 64 °F (2008)
Min Temperature 13 °F 19 °F -16 °F (2014)
Degree Days  
Heating Degree Days 42    
Moisture  
Dew Point 20 °F    
Average Humidity 88    
Maximum Humidity 100    
Minimum Humidity 73    
Precipitation  
Precipitation 0.00 in - - ()
Sea Level Pressure  
Sea Level Pressure 30.35 in    
Wind  
Wind Speed 7 mph (SSW)    
Max Wind Speed 18 mph    
Max Gust Speed -    
Visibility 9 miles    
Events      
Averages and records for this station are not official NWS values.
T = Trace of Precipitation, MM = Missing Value Source: NWS Daily Summary

Daily Weather History Graph

Daily Weather History Graph

Search for Another Location

Airport or City:

Trip Planner

Search our weather history database for the weather conditions in past years. The results will help you decide how hot, cold, wet, or windy it might be!

Date:

Astronomy

Jan. 07, 2013 Rise Set
Actual Time 8:08 AM EST 5:33 PM EST
Civil Twilight 7:37 AM EST 6:04 PM EST
Nautical Twilight 7:03 AM EST 6:38 PM EST
Astronomical Twilight 6:30 AM EST 7:11 PM EST
Moon 3:31 AM EST (1/7) 1:44 PM EST (1/7)
Length of Visible Light 10h 26m
Length of Day
9h 25m
Waning Crescent, 23% of the Moon is Illuminated
Jan 7
Waning Crescent
Jan 11
New
Jan 18
First Quarter
Jan 26
Full
Feb 3
Last Quarter

Hourly Weather History & Observations

Time (EST) Temp. Windchill Dew Point Humidity Pressure Visibility Wind Dir Wind Speed Gust Speed Precip Events Conditions
12:55 AM 24.3 °F 16.3 °F 21.9 °F 91% 30.37 in 10.0 mi WSW 6.9 mph - N/A   Mostly Cloudy
1:07 AM 24.8 °F 17.9 °F 21.2 °F 86% 30.37 in 10.0 mi WSW 5.8 mph - N/A   Scattered Clouds
1:35 AM 21.2 °F 12.6 °F 19.4 °F 93% 30.37 in 10.0 mi WSW 6.9 mph - N/A   Mostly Cloudy
1:45 AM 21.2 °F 11.7 °F 19.4 °F 93% 30.38 in 10.0 mi WSW 8.1 mph - N/A   Scattered Clouds
1:55 AM 21.7 °F 14.3 °F 19.4 °F 91% 30.38 in 10.0 mi WSW 5.8 mph - N/A   Scattered Clouds
2:55 AM 18.0 °F 7.7 °F 16.7 °F 95% 30.40 in 10.0 mi WSW 8.1 mph - N/A   Clear
3:55 AM 16.3 °F 6.7 °F 15.4 °F 96% 30.40 in 7.0 mi WSW 6.9 mph - N/A   Clear
4:55 AM 16.2 °F - 15.1 °F 95% 30.41 in 6.0 mi Calm Calm - N/A   Clear
5:26 AM 17.6 °F 12.3 °F 15.8 °F 93% 30.41 in 4.0 mi SW 3.5 mph - N/A   Clear
5:36 AM 15.8 °F 6.1 °F 14.0 °F 93% 30.41 in 5.0 mi SW 6.9 mph - N/A   Clear
5:55 AM 13.8 °F 2.7 °F 11.8 °F 92% 30.41 in 7.0 mi WSW 8.1 mph - N/A   Clear
6:55 AM 14.2 °F 4.1 °F 12.6 °F 93% 30.43 in 9.0 mi SSW 6.9 mph - N/A   Clear
7:55 AM 15.1 °F 6.4 °F 13.5 °F 93% 30.44 in 7.0 mi SSW 5.8 mph - N/A   Clear
8:55 AM 17.4 °F 9.1 °F 16.2 °F 95% 30.44 in 9.0 mi SSW 5.8 mph - N/A   Clear
9:55 AM 21.0 °F 10.6 °F 19.9 °F 96% 30.43 in 10.0 mi South 9.2 mph - N/A   Clear
10:31 AM 23.0 °F 13.1 °F 23.0 °F 100% 30.43 in 10.0 mi South 9.2 mph - N/A   Clear
10:55 AM 24.6 °F 15.8 °F 23.2 °F 94% 30.44 in 10.0 mi South 8.1 mph - N/A   Clear
11:55 AM 29.1 °F 19.4 °F 23.2 °F 78% 30.40 in 10.0 mi South 11.5 mph - N/A   Clear
12:55 PM 31.5 °F 20.9 °F 24.3 °F 75% 30.36 in 10.0 mi SSW 15.0 mph - N/A   Clear
1:55 PM 32.5 °F 22.3 °F 25.2 °F 74% 30.32 in 10.0 mi SSW 15.0 mph - N/A   Clear
2:55 PM 33.4 °F 22.3 °F 25.5 °F 73% 30.30 in 10.0 mi SSW 18.4 mph - N/A   Clear
3:55 PM 33.8 °F 25.8 °F 26.1 °F 73% 30.30 in 10.0 mi SSW 10.4 mph - N/A   Clear
4:55 PM 31.6 °F 26.0 °F 25.3 °F 78% 30.29 in 10.0 mi SSW 5.8 mph - N/A   Clear
5:55 PM 28.0 °F 19.3 °F 23.4 °F 83% 30.28 in 10.0 mi South 9.2 mph - N/A   Clear
6:55 PM 25.9 °F 17.4 °F 22.3 °F 86% 30.26 in 10.0 mi SSE 8.1 mph - N/A   Clear
7:55 PM 26.6 °F 20.0 °F 22.5 °F 84% 30.26 in 10.0 mi South 5.8 mph - N/A   Clear
8:55 PM 23.0 °F - 20.8 °F 91% 30.25 in 10.0 mi Calm Calm - N/A   Clear
9:55 PM 21.7 °F 13.2 °F 19.6 °F 91% 30.24 in 10.0 mi SSW 6.9 mph - N/A   Clear
10:55 PM 22.1 °F 12.0 °F 19.4 °F 89% 30.23 in 10.0 mi South 9.2 mph - N/A   Clear
11:55 PM 24.8 °F 13.4 °F 21.2 °F 86% 30.21 in 10.0 mi South 12.7 mph - N/A   Clear